Time,TemperatureF,DewpointF,PressureIn,WindDirection,WindDirectionDegrees,WindSpeedMPH,WindSpeedGustMPH,Humidity,HourlyPrecipIn,Conditions,Clouds,dailyrainin,SoftwareType,DateUTC
2013-06-16 00:05:00,65.9,62.0,29.82,South,191,4.0,-999.0,87,-99.99,,,0.00,weatherlink.com 1.10,2013-06-16 04:05:00,
2013-06-16 00:20:00,65.8,62.0,29.83,SSW,198,0.0,-999.0,88,-99.99,,,0.00,weatherlink.com 1.10,2013-06-16 04:20:00,
2013-06-16 00:35:00,65.7,62.0,29.84,South,180,8.0,-999.0,89,-99.99,,,0.02,weatherlink.com 1.10,2013-06-16 04:35:00,
2013-06-16 00:50:00,65.1,63.0,29.85,SSW,207,4.0,-999.0,92,-99.99,,,0.04,weatherlink.com 1.10,2013-06-16 04:50:00,
2013-06-16 01:05:00,64.8,63.0,29.84,WSW,239,0.0,-999.0,93,-99.99,,,0.15,weatherlink.com 1.10,2013-06-16 05:05:00,
2013-06-16 01:20:00,64.3,63.0,29.78,SE,145,2.0,-999.0,94,-99.99,,,0.19,weatherlink.com 1.10,2013-06-16 05:20:00,
2013-06-16 01:35:00,64.2,63.0,29.77,SE,145,0.0,-999.0,95,-99.99,,,0.20,weatherlink.com 1.10,2013-06-16 05:35:00,
2013-06-16 01:50:00,64.4,63.0,29.77,South,186,0.0,-999.0,95,-99.99,,,0.30,weatherlink.com 1.10,2013-06-16 05:50:00,
2013-06-16 02:05:00,64.7,64.0,29.78,SSW,208,2.0,-999.0,96,-99.99,,,0.53,weatherlink.com 1.10,2013-06-16 06:05:00,
2013-06-16 02:20:00,65.0,64.0,29.77,South,184,7.0,-999.0,96,-99.99,,,0.61,weatherlink.com 1.10,2013-06-16 06:20:00,
2013-06-16 02:35:00,65.0,64.0,29.75,SSW,202,6.0,-999.0,96,-99.99,,,0.64,weatherlink.com 1.10,2013-06-16 06:35:00,
2013-06-16 02:50:00,64.9,64.0,29.75,SSW,199,6.0,-999.0,96,-99.99,,,0.64,weatherlink.com 1.10,2013-06-16 06:50:00,
2013-06-16 03:05:00,64.9,64.0,29.76,SW,236,7.0,-999.0,96,-99.99,,,0.64,weatherlink.com 1.10,2013-06-16 07:05:00,
2013-06-16 03:20:00,64.6,64.0,29.76,SW,217,7.0,-999.0,96,-99.99,,,0.64,weatherlink.com 1.10,2013-06-16 07:20:00,
2013-06-16 03:35:00,64.1,63.0,29.77,SSW,202,11.0,-999.0,96,-99.99,,,0.64,weatherlink.com 1.10,2013-06-16 07:35:00,
2013-06-16 03:50:00,63.5,62.0,29.77,SW,219,5.0,-999.0,96,-99.99,,,0.64,weatherlink.com 1.10,2013-06-16 07:50:00,
2013-06-16 04:05:00,63.4,62.0,29.77,WSW,246,7.0,-999.0,96,-99.99,,,0.64,weatherlink.com 1.10,2013-06-16 08:05:00,
2013-06-16 04:20:00,63.3,62.0,29.77,WSW,246,6.0,-999.0,96,-99.99,,,0.64,weatherlink.com 1.10,2013-06-16 08:20:00,
2013-06-16 04:35:00,63.3,62.0,29.77,WSW,237,4.0,-999.0,96,-99.99,,,0.64,weatherlink.com 1.10,2013-06-16 08:35:00,
2013-06-16 04:50:00,63.1,62.0,29.77,WSW,243,12.0,-999.0,96,-99.99,,,0.64,weatherlink.com 1.10,2013-06-16 08:50:00,
2013-06-16 05:05:00,62.6,62.0,29.77,WSW,238,13.0,-999.0,97,-99.99,,,0.64,weatherlink.com 1.10,2013-06-16 09:05:00,
2013-06-16 05:20:00,62.3,62.0,29.77,WSW,249,10.0,-999.0,97,-99.99,,,0.64,weatherlink.com 1.10,2013-06-16 09:20:00,
2013-06-16 05:35:00,62.1,61.0,29.77,WSW,244,11.0,-999.0,97,-99.99,,,0.64,weatherlink.com 1.10,2013-06-16 09:35:00,
2013-06-16 05:50:00,61.6,61.0,29.77,West,277,17.0,-999.0,97,-99.99,,,0.64,weatherlink.com 1.10,2013-06-16 09:50:00,
2013-06-16 06:05:00,61.1,60.0,29.77,WSW,256,11.0,-999.0,97,-99.99,,,0.64,weatherlink.com 1.10,2013-06-16 10:05:00,
2013-06-16 06:20:00,60.6,60.0,29.77,West,276,9.0,-999.0,97,-99.99,,,0.64,weatherlink.com 1.10,2013-06-16 10:20:00,
2013-06-16 06:35:00,60.5,60.0,29.78,WNW,291,8.0,-999.0,97,-99.99,,,0.64,weatherlink.com 1.10,2013-06-16 10:35:00,
2013-06-16 06:50:00,60.5,60.0,29.79,West,272,6.0,-999.0,97,-99.99,,,0.64,weatherlink.com 1.10,2013-06-16 10:50:00,
2013-06-16 07:05:00,60.5,60.0,29.80,WNW,285,5.0,-999.0,97,-99.99,,,0.64,weatherlink.com 1.10,2013-06-16 11:05:00,
2013-06-16 07:20:00,60.4,60.0,29.80,WNW,294,6.0,-999.0,97,-99.99,,,0.64,weatherlink.com 1.10,2013-06-16 11:20:00,
2013-06-16 07:35:00,60.6,60.0,29.80,NW,306,6.0,-999.0,97,-99.99,,,0.64,weatherlink.com 1.10,2013-06-16 11:35:00,
2013-06-16 07:50:00,60.7,60.0,29.80,West,280,4.0,-999.0,97,-99.99,,,0.64,weatherlink.com 1.10,2013-06-16 11:50:00,
2013-06-16 08:05:00,60.9,60.0,29.80,WNW,297,5.0,-999.0,98,-99.99,,,0.64,weatherlink.com 1.10,2013-06-16 12:05:00,
2013-06-16 08:20:00,61.4,61.0,29.81,West,280,3.0,-999.0,98,-99.99,,,0.64,weatherlink.com 1.10,2013-06-16 12:20:00,
2013-06-16 08:35:00,61.7,61.0,29.81,WNW,296,6.0,-999.0,98,-99.99,,,0.64,weatherlink.com 1.10,2013-06-16 12:35:00,
2013-06-16 08:50:00,62.2,62.0,29.82,NW,311,6.0,-999.0,98,-99.99,,,0.64,weatherlink.com 1.10,2013-06-16 12:50:00,
2013-06-16 09:05:00,62.7,62.0,29.82,NW,308,6.0,-999.0,98,-99.99,,,0.64,weatherlink.com 1.10,2013-06-16 13:05:00,
2013-06-16 09:20:00,63.0,63.0,29.83,NW,304,6.0,-999.0,98,-99.99,,,0.64,weatherlink.com 1.10,2013-06-16 13:20:00,
2013-06-16 09:35:00,63.5,63.0,29.83,NW,311,3.0,-999.0,98,-99.99,,,0.64,weatherlink.com 1.10,2013-06-16 13:35:00,
2013-06-16 09:50:00,64.5,64.0,29.83,NW,321,5.0,-999.0,98,-99.99,,,0.64,weatherlink.com 1.10,2013-06-16 13:50:00,
2013-06-16 10:05:00,65.4,65.0,29.82,West,276,4.0,-999.0,98,-99.99,,,0.64,weatherlink.com 1.10,2013-06-16 14:05:00,
2013-06-16 10:20:00,65.6,65.0,29.82,WNW,286,4.0,-999.0,97,-99.99,,,0.64,weatherlink.com 1.10,2013-06-16 14:20:00,
2013-06-16 10:35:00,66.5,65.0,29.82,WSW,250,8.0,-999.0,95,-99.99,,,0.64,weatherlink.com 1.10,2013-06-16 14:35:00,
2013-06-16 10:50:00,66.4,64.0,29.82,WSW,248,8.0,-999.0,93,-99.99,,,0.64,weatherlink.com 1.10,2013-06-16 14:50:00,
2013-06-16 11:05:00,67.1,65.0,29.82,WSW,256,7.0,-999.0,92,-99.99,,,0.64,weatherlink.com 1.10,2013-06-16 15:05:00,
2013-06-16 11:20:00,67.7,65.0,29.83,SW,232,7.0,-999.0,91,-99.99,,,0.64,weatherlink.com 1.10,2013-06-16 15:20:00,
2013-06-16 11:35:00,67.5,65.0,29.83,West,267,5.0,-999.0,91,-99.99,,,0.64,weatherlink.com 1.10,2013-06-16 15:35:00,
2013-06-16 11:50:00,68.2,65.0,29.83,WSW,252,6.0,-999.0,89,-99.99,,,0.64,weatherlink.com 1.10,2013-06-16 15:50:00,
2013-06-16 12:05:00,68.6,65.0,29.83,SSW,212,7.0,-999.0,87,-99.99,,,0.64,weatherlink.com 1.10,2013-06-16 16:05:00,
2013-06-16 12:20:00,69.2,65.0,29.84,West,267,4.0,-999.0,86,-99.99,,,0.64,weatherlink.com 1.10,2013-06-16 16:20:00,
2013-06-16 12:35:00,70.3,66.0,29.84,WSW,246,8.0,-999.0,85,-99.99,,,0.64,weatherlink.com 1.10,2013-06-16 16:35:00,
2013-06-16 12:50:00,71.4,67.0,29.83,SW,220,8.0,-999.0,85,-99.99,,,0.64,weatherlink.com 1.10,2013-06-16 16:50:00,
2013-06-16 13:05:00,71.4,66.0,29.83,SW,226,5.0,-999.0,84,-99.99,,,0.64,weatherlink.com 1.10,2013-06-16 17:05:00,
2013-06-16 13:20:00,71.7,66.0,29.83,WSW,254,8.0,-999.0,83,-99.99,,,0.64,weatherlink.com 1.10,2013-06-16 17:20:00,
2013-06-16 13:35:00,72.1,66.0,29.83,SW,232,0.0,-999.0,82,-99.99,,,0.64,weatherlink.com 1.10,2013-06-16 17:35:00,
2013-06-16 13:50:00,73.1,67.0,29.83,WSW,246,10.0,-999.0,82,-99.99,,,0.64,weatherlink.com 1.10,2013-06-16 17:50:00,
2013-06-16 14:05:00,73.5,67.0,29.83,SSW,209,6.0,-999.0,81,-99.99,,,0.64,weatherlink.com 1.10,2013-06-16 18:05:00,
2013-06-16 14:20:00,73.8,67.0,29.84,WSW,250,5.0,-999.0,79,-99.99,,,0.64,weatherlink.com 1.10,2013-06-16 18:20:00,
2013-06-16 14:35:00,74.3,67.0,29.84,SW,225,5.0,-999.0,77,-99.99,,,0.64,weatherlink.com 1.10,2013-06-16 18:35:00,
2013-06-16 14:50:00,74.7,66.0,29.84,West,275,10.0,-999.0,74,-99.99,,,0.64,weatherlink.com 1.10,2013-06-16 18:50:00,
2013-06-16 15:05:00,74.8,66.0,29.84,WSW,256,8.0,-999.0,74,-99.99,,,0.64,weatherlink.com 1.10,2013-06-16 19:05:00,
2013-06-16 15:20:00,74.7,65.0,29.84,WSW,256,8.0,-999.0,72,-99.99,,,0.64,weatherlink.com 1.10,2013-06-16 19:20:00,
2013-06-16 15:35:00,75.1,66.0,29.84,WNW,294,8.0,-999.0,74,-99.99,,,0.64,weatherlink.com 1.10,2013-06-16 19:35:00,
2013-06-16 15:50:00,74.8,64.0,29.84,West,267,9.0,-999.0,70,-99.99,,,0.64,weatherlink.com 1.10,2013-06-16 19:50:00,
2013-06-16 16:05:00,74.8,66.0,29.84,WSW,242,7.0,-999.0,73,-99.99,,,0.64,weatherlink.com 1.10,2013-06-16 20:05:00,
2013-06-16 16:20:00,74.5,65.0,29.85,WSW,254,6.0,-999.0,71,-99.99,,,0.64,weatherlink.com 1.10,2013-06-16 20:20:00,
2013-06-16 16:35:00,74.6,65.0,29.85,SW,234,12.0,-999.0,71,-99.99,,,0.64,weatherlink.com 1.10,2013-06-16 20:35:00,
2013-06-16 16:50:00,74.9,64.0,29.84,WSW,258,9.0,-999.0,69,-99.99,,,0.64,weatherlink.com 1.10,2013-06-16 20:50:00,
2013-06-16 17:05:00,74.8,64.0,29.84,WSW,240,9.0,-999.0,68,-99.99,,,0.64,weatherlink.com 1.10,2013-06-16 21:05:00,
2013-06-16 17:20:00,75.3,64.0,29.84,SW,225,4.0,-999.0,69,-99.99,,,0.64,weatherlink.com 1.10,2013-06-16 21:20:00,
2013-06-16 17:35:00,75.8,65.0,29.84,WSW,258,7.0,-999.0,69,-99.99,,,0.64,weatherlink.com 1.10,2013-06-16 21:35:00,
2013-06-16 17:50:00,75.7,65.0,29.84,SW,226,8.0,-999.0,70,-99.99,,,0.64,weatherlink.com 1.10,2013-06-16 21:50:00,
2013-06-16 18:05:00,76.1,65.0,29.84,WSW,250,11.0,-999.0,69,-99.99,,,0.64,weatherlink.com 1.10,2013-06-16 22:05:00,
2013-06-16 18:20:00,75.9,65.0,29.84,WSW,243,6.0,-999.0,68,-99.99,,,0.64,weatherlink.com 1.10,2013-06-16 22:20:00,
2013-06-16 18:35:00,75.8,65.0,29.84,SW,236,7.0,-999.0,69,-99.99,,,0.64,weatherlink.com 1.10,2013-06-16 22:35:00,
2013-06-16 18:50:00,75.8,64.0,29.84,WSW,245,7.0,-999.0,68,-99.99,,,0.64,weatherlink.com 1.10,2013-06-16 22:50:00,
2013-06-16 19:05:00,75.2,63.0,29.84,West,265,9.0,-999.0,67,-99.99,,,0.64,weatherlink.com 1.10,2013-06-16 23:05:00,
2013-06-16 19:20:00,75.1,63.0,29.84,WSW,250,6.0,-999.0,67,-99.99,,,0.64,weatherlink.com 1.10,2013-06-16 23:20:00,
2013-06-16 19:35:00,74.9,63.0,29.84,WSW,256,11.0,-999.0,66,-99.99,,,0.64,weatherlink.com 1.10,2013-06-16 23:35:00,
2013-06-16 19:50:00,74.7,62.0,29.84,SW,236,10.0,-999.0,65,-99.99,,,0.64,weatherlink.com 1.10,2013-06-16 23:50:00,
2013-06-16 20:05:00,74.4,63.0,29.84,West,260,6.0,-999.0,67,-99.99,,,0.64,weatherlink.com 1.10,2013-06-17 00:05:00,
2013-06-16 20:20:00,73.9,62.0,29.84,WSW,255,4.0,-999.0,67,-99.99,,,0.64,weatherlink.com 1.10,2013-06-17 00:20:00,
2013-06-16 20:35:00,73.2,62.0,29.84,WSW,245,5.0,-999.0,67,-99.99,,,0.64,weatherlink.com 1.10,2013-06-17 00:35:00,
2013-06-16 20:50:00,72.1,61.0,29.84,SW,234,0.0,-999.0,67,-99.99,,,0.64,weatherlink.com 1.10,2013-06-17 00:50:00,
2013-06-16 21:05:00,70.6,61.0,29.84,SW,227,5.0,-999.0,71,-99.99,,,0.64,weatherlink.com 1.10,2013-06-17 01:05:00,
2013-06-16 21:20:00,69.8,60.0,29.84,WSW,243,5.0,-999.0,71,-99.99,,,0.64,weatherlink.com 1.10,2013-06-17 01:20:00,
2013-06-16 21:35:00,68.7,60.0,29.84,SW,225,3.0,-999.0,74,-99.99,,,0.64,weatherlink.com 1.10,2013-06-17 01:35:00,
2013-06-16 21:50:00,67.5,60.0,29.85,SW,230,3.0,-999.0,77,-99.99,,,0.64,weatherlink.com 1.10,2013-06-17 01:50:00,
2013-06-16 22:05:00,66.2,60.0,29.85,SW,230,1.0,-999.0,80,-99.99,,,0.64,weatherlink.com 1.10,2013-06-17 02:05:00,
2013-06-16 22:20:00,65.7,60.0,29.85,SW,229,0.0,-999.0,81,-99.99,,,0.64,weatherlink.com 1.10,2013-06-17 02:20:00,
2013-06-16 22:35:00,65.4,59.0,29.85,SW,229,3.0,-999.0,81,-99.99,,,0.64,weatherlink.com 1.10,2013-06-17 02:35:00,
2013-06-16 22:50:00,65.5,60.0,29.85,SW,229,2.0,-999.0,82,-99.99,,,0.64,weatherlink.com 1.10,2013-06-17 02:50:00,
2013-06-16 23:05:00,65.9,60.0,29.85,SW,230,4.0,-999.0,80,-99.99,,,0.64,weatherlink.com 1.10,2013-06-17 03:05:00,
2013-06-16 23:20:00,65.4,60.0,29.84,SW,233,2.0,-999.0,82,-99.99,,,0.64,weatherlink.com 1.10,2013-06-17 03:20:00,
2013-06-16 23:35:00,64.6,59.0,29.85,North,11,4.0,-999.0,83,-99.99,,,0.64,weatherlink.com 1.10,2013-06-17 03:35:00,
2013-06-16 23:50:00,64.3,59.0,29.86,North,5,5.0,-999.0,84,-99.99,,,0.64,weatherlink.com 1.10,2013-06-17 03:50:00,